| time (UTC) | temp C | wind direction | speed KPH | gust KPH | rain 1hr cm | rain 24hr cm | rain mn cm | humidity % | barometer mb |
| 20260905133558 | 18 | 264 | 20.9 | 35.4 | 0.00 | 0.00 | 0.00 | 59 | 1021.1 |
| 20260905132057 | 18 | 273 | 20.9 | 35.4 | 0.00 | 0.00 | 0.00 | 60 | 1021.2 |
| 20260905130557 | 18 | 276 | 24.1 | 41.8 | 0.00 | 0.00 | 0.00 | 59 | 1021.1 |
| 20260905125057 | 17 | 273 | 20.9 | 38.6 | 0.00 | 0.00 | 0.00 | 61 | 1020.8 |
| 20260905123558 | 17 | 269 | 20.9 | 35.4 | 0.00 | 0.00 | 0.00 | 64 | 1020.8 |
| 20260905122057 | 18 | 279 | 24.1 | 35.4 | 0.00 | 0.00 | 0.00 | 61 | 1020.5 |
| 20260905120557 | 17 | 288 | 20.9 | 38.6 | 0.00 | 0.00 | 0.00 | 62 | 1020.5 |
| 20260905115056 | 17 | 300 | 20.9 | 32.2 | 0.00 | 0.00 | 0.00 | 61 | 1020.2 |
| 20260905113556 | 17 | 304 | 17.7 | 32.2 | 0.00 | 0.00 | 0.00 | 62 | 1020.0 |
| 20260905112055 | 18 | 288 | 17.7 | 32.2 | 0.00 | 0.00 | 0.00 | 61 | 1019.7 |
| 20260905110555 | 17 | 284 | 17.7 | 32.2 | 0.00 | 0.00 | 0.00 | 63 | 1019.9 |
| 20260905105055 | 17 | 259 | 24.1 | 38.6 | 0.00 | 0.00 | 0.00 | 65 | 1019.6 |
| 20260905103555 | 18 | 256 | 24.1 | 41.8 | 0.00 | 0.00 | 0.00 | 63 | 1019.4 |
| 20260905102054 | 17 | 260 | 24.1 | 35.4 | 0.00 | 0.00 | 0.00 | 68 | 1019.2 |
| 20260905101825 | 17 | 260 | 24.1 | 35.4 | 0.00 | 0.00 | 0.00 | 68 | 1019.2 |
| 20260905100324 | 16 | 253 | 24.1 | 38.6 | 0.00 | 0.00 | 0.00 | 70 | 1019.0 |
| 20260905095529 | 17 | 252 | 24.1 | 41.8 | 0.00 | 0.00 | 0.00 | 64 | 1018.8 |
| 20260905094027 | 18 | 249 | 24.1 | 46.7 | 0.00 | 0.00 | 0.00 | 67 | 1018.6 |
| 20260905092527 | 17 | 257 | 32.2 | 46.7 | 0.00 | 0.00 | 0.00 | 68 | 1018.6 |
| 20260905091026 | 17 | 251 | 24.1 | 38.6 | 0.00 | 0.00 | 0.00 | 71 | 1018.4 |
| 20260905085526 | 17 | 243 | 20.9 | 35.4 | 0.00 | 0.00 | 0.00 | 75 | 1018.3 |
| 20260905084025 | 17 | 237 | 24.1 | 41.8 | 0.00 | 0.00 | 0.00 | 73 | 1018.0 |
| 20260905082525 | 16 | 244 | 24.1 | 41.8 | 0.00 | 0.00 | 0.00 | 73 | 1017.9 |
| 20260905081025 | 16 | 243 | 24.1 | 38.6 | 0.00 | 0.00 | 0.00 | 75 | 1017.7 |
| 20260905075524 | 16 | 239 | 24.1 | 38.6 | 0.00 | 0.00 | 0.00 | 75 | 1017.6 |
| 20260905074023 | 15 | 240 | 17.7 | 27.4 | 0.00 | 0.00 | 0.00 | 76 | 1017.4 |
| 20260905072523 | 15 | 238 | 20.9 | 27.4 | 0.00 | 0.00 | 0.00 | 77 | 1017.3 |
| 20260905071023 | 15 | 239 | 20.9 | 32.2 | 0.00 | 0.00 | 0.00 | 78 | 1017.3 |
| 20260905065523 | 15 | 236 | 17.7 | 24.1 | 0.00 | 0.00 | 0.00 | 79 | 1017.2 |
| 20260905064023 | 15 | 236 | 17.7 | 24.1 | 0.00 | 0.00 | 0.00 | 79 | 1017.2 |
| 20260905062523 | 13 | 230 | 12.9 | 20.9 | 0.00 | 0.00 | 0.00 | 81 | 1017.1 |
| 20260905061023 | 12 | 227 | 12.9 | 20.9 | 0.00 | 0.00 | 0.00 | 83 | 1016.9 |
| 20260905055523 | 12 | 225 | 12.9 | 20.9 | 0.00 | 0.00 | 0.00 | 83 | 1016.7 |
| 20260905054023 | 12 | 223 | 9.7 | 20.9 | 0.00 | 0.00 | 0.00 | 85 | 1016.6 |
| 20260905052523 | 12 | 223 | 9.7 | 17.7 | 0.00 | 0.00 | 0.00 | 85 | 1016.6 |
| 20260905051023 | 12 | 223 | 12.9 | 17.7 | 0.00 | 0.00 | 0.00 | 84 | 1016.5 |
| 20260905045523 | 12 | 226 | 9.7 | 17.7 | 0.00 | 0.00 | 0.00 | 84 | 1016.4 |
| 20260905044023 | 12 | 222 | 9.7 | 17.7 | 0.00 | 0.00 | 0.00 | 84 | 1016.2 |
| 20260905042523 | 12 | 228 | 12.9 | 17.7 | 0.00 | 0.00 | 0.00 | 83 | 1016.2 |
| 20260905041022 | 12 | 233 | 9.7 | 20.9 | 0.00 | 0.00 | 0.00 | 83 | 1016.0 |
| 20260905035522 | 12 | 235 | 9.7 | 20.9 | 0.00 | 0.00 | 0.00 | 82 | 1016.0 |
| 20260905034022 | 12 | 229 | 9.7 | 17.7 | 0.00 | 0.00 | 0.00 | 82 | 1015.9 |
| 20260905032522 | 12 | 228 | 9.7 | 17.7 | 0.00 | 0.00 | 0.00 | 83 | 1015.8 |
| 20260905031022 | 12 | 225 | 9.7 | 20.9 | 0.00 | 0.00 | 0.00 | 82 | 1015.8 |
| 20260905025522 | 12 | 233 | 9.7 | 20.9 | 0.00 | 0.00 | 0.00 | 80 | 1015.8 |
| 20260905024022 | 13 | 224 | 9.7 | 17.7 | 0.00 | 0.00 | 0.00 | 80 | 1015.6 |
| 20260905022522 | 12 | 224 | 9.7 | 17.7 | 0.00 | 0.00 | 0.00 | 81 | 1015.6 |
| 20260905021022 | 12 | 223 | 9.7 | 17.7 | 0.00 | 0.00 | 0.00 | 81 | 1015.5 |
| 20260905015522 | 12 | 223 | 9.7 | 17.7 | 0.00 | 0.00 | 0.00 | 81 | 1015.4 |
| 20260905014022 | 13 | 226 | 9.7 | 17.7 | 0.00 | 0.00 | 0.00 | 80 | 1015.3 |
| 20260905012522 | 13 | 230 | 9.7 | 17.7 | 0.00 | 0.00 | 0.00 | 80 | 1015.3 |
| 20260905011022 | 13 | 227 | 9.7 | 17.7 | 0.00 | 0.00 | 0.00 | 79 | 1015.4 |
| 20260905005522 | 13 | 225 | 9.7 | 17.7 | 0.00 | 0.00 | 0.00 | 80 | 1015.4 |
| 20260905004021 | 13 | 227 | 9.7 | 17.7 | 0.00 | 0.00 | 0.00 | 80 | 1015.3 |
| 20260905002522 | 13 | 233 | 12.9 | 17.7 | 0.00 | 0.00 | 0.00 | 79 | 1015.2 |
| 20260905001021 | 13 | 234 | 12.9 | 20.9 | 0.00 | 0.00 | 0.00 | 79 | 1015.2 |
| 20260904235521 | 13 | 236 | 12.9 | 24.1 | 0.00 | 0.00 | 0.00 | 79 | 1014.9 |
| 20260904234020 | 13 | 239 | 12.9 | 20.9 | 0.00 | 0.00 | 0.00 | 80 | 1014.9 |
| 20260904232520 | 15 | 233 | 12.9 | 20.9 | 0.00 | 0.00 | 0.00 | 78 | 1014.8 |
| 20260904231019 | 15 | 235 | 12.9 | 24.1 | 0.00 | 0.00 | 0.00 | 79 | 1014.7 |
| 20260904225520 | 15 | 234 | 12.9 | 20.9 | 0.00 | 0.00 | 0.00 | 79 | 1014.7 |
| 20260904224018 | 15 | 235 | 12.9 | 20.9 | 0.00 | 0.00 | 0.00 | 80 | 1014.5 |
| 20260904222519 | 15 | 230 | 9.7 | 17.7 | 0.00 | 0.00 | 0.00 | 80 | 1014.4 |
| 20260904221018 | 15 | 233 | 9.7 | 17.7 | 0.00 | 0.00 | 0.00 | 80 | 1014.3 |
| 20260904215517 | 15 | 235 | 9.7 | 17.7 | 0.00 | 0.00 | 0.00 | 82 | 1014.2 |
| 20260904214016 | 15 | 239 | 12.9 | 17.7 | 0.00 | 0.00 | 0.00 | 83 | 1014.2 |
| 20260904212516 | 15 | 236 | 12.9 | 17.7 | 0.00 | 0.00 | 0.00 | 82 | 1014.2 |
| 20260904211015 | 15 | 244 | 9.7 | 17.7 | 0.00 | 0.00 | 0.00 | 83 | 1014.0 |
| 20260904205515 | 15 | 248 | 9.7 | 17.7 | 0.00 | 0.00 | 0.00 | 82 | 1014.0 |
| 20260904204014 | 15 | 258 | 9.7 | 20.9 | 0.00 | 0.00 | 0.00 | 80 | 1013.9 |
| 20260904202515 | 15 | 257 | 9.7 | 20.9 | 0.00 | 0.00 | 0.00 | 80 | 1013.8 |
| 20260904201014 | 15 | 258 | 9.7 | 17.7 | 0.00 | 0.00 | 0.00 | 81 | 1013.7 |
| 20260904195514 | 15 | 259 | 9.7 | 17.7 | 0.00 | 0.00 | 0.00 | 81 | 1013.5 |
| 20260904194012 | 15 | 272 | 9.7 | 20.9 | 0.00 | 0.00 | 0.00 | 81 | 1013.3 |
| 20260904192512 | 15 | 277 | 9.7 | 20.9 | 0.00 | 0.00 | 0.00 | 80 | 1013.1 |
| 20260904191012 | 15 | 280 | 12.9 | 38.6 | 0.00 | 0.00 | 0.00 | 79 | 1012.9 |
| 20260904185513 | 15 | 280 | 20.9 | 38.6 | 0.00 | 0.00 | 0.00 | 78 | 1012.8 |
| 20260904184011 | 16 | 268 | 20.9 | 35.4 | 0.00 | 0.00 | 0.00 | 76 | 1012.3 |
| 20260904182512 | 16 | 261 | 17.7 | 27.4 | 0.00 | 0.00 | 0.00 | 77 | 1012.1 |
| 20260904181010 | 16 | 265 | 12.9 | 27.4 | 0.00 | 0.00 | 0.00 | 79 | 1011.9 |
| 20260904175510 | 16 | 268 | 17.7 | 24.1 | 0.00 | 0.00 | 0.00 | 78 | 1012.0 |
| 20260904174010 | 16 | 264 | 17.7 | 32.2 | 0.00 | 0.00 | 0.00 | 81 | 1011.5 |
| 20260904172510 | 17 | 262 | 17.7 | 32.2 | 0.00 | 0.00 | 0.00 | 79 | 1011.3 |
| 20260904171009 | 17 | 263 | 20.9 | 35.4 | 0.00 | 0.00 | 0.00 | 80 | 1011.2 |
| 20260904165510 | 17 | 267 | 17.7 | 32.2 | 0.00 | 0.00 | 0.00 | 82 | 1011.4 |
| 20260904164009 | 17 | 260 | 17.7 | 35.4 | 0.00 | 0.00 | 0.00 | 84 | 1011.0 |
| 20260904162510 | 17 | 267 | 17.7 | 35.4 | 0.00 | 0.00 | 0.00 | 83 | 1010.8 |
| 20260904161009 | 17 | 265 | 12.9 | 35.4 | 0.00 | 0.00 | 0.00 | 85 | 1011.0 |
| 20260904155509 | 17 | 265 | 20.9 | 35.4 | 0.00 | 0.00 | 0.00 | 85 | 1011.0 |
| 20260904154008 | 17 | 262 | 24.1 | 35.4 | 0.00 | 0.00 | 0.00 | 86 | 1010.8 |
| 20260904152508 | 17 | 262 | 24.1 | 41.8 | 0.00 | 0.00 | 0.00 | 88 | 1010.7 |
| 20260904151008 | 16 | 258 | 24.1 | 35.4 | 0.08 | 0.00 | 0.00 | 91 | 1010.4 |
| 20260904145508 | 16 | 255 | 20.9 | 32.2 | 0.03 | 0.00 | 0.00 | 92 | 1010.2 |
| 20260904144007 | 16 | 246 | 24.1 | 35.4 | 0.00 | 0.00 | 0.00 | 93 | 1010.0 |
| 20260904142507 | 16 | 246 | 20.9 | 32.2 | 0.20 | 0.00 | 0.00 | 94 | 1009.6 |
| 20260904141007 | 16 | 247 | 24.1 | 32.2 | 0.51 | 0.00 | 0.00 | 93 | 1009.8 |
| 20260904135506 | 16 | 243 | 20.9 | 32.2 | 0.36 | 0.00 | 0.00 | 93 | 1010.0 |